Location: Arbon
(43.0005°N, 0.7472°E)
Time: 02:27:56
(UTC+00:00)

Landsat 5 - Pass Details

Date: 07 August 2020
Orbit: 529 x 653 km, 98.2° (Epoch: 19 September)

Event Time Altitude Azimuth Distance (km) Brightness Sun altitude
Rises 03:17:33 0° 156° (SSE) 2,670 6.6 -15.8°
Reaches altitude 10° 03:19:38 10° 153° (SSE) 1,794 5.8 -15.5°
Maximum altitude 03:23:26 60° 74° (ENE) 635 3.9 -15.0°
Drops below altitude 10° 03:27:24 10° 354° (N) 1,863 6.5 -14.4°
Sets 03:29:36 0° 351° (N) 2,784 7.3 -14.1°
